Regional Weather Roundup
Issued by NWS

Home | Current Version | Previous Version | Text Only | Print | Product List | Glossary On
Versions: 1 2 3 4 5 6 7 8 9 10 11 12 13 14 15 16 17 18 19 20 21 22 23 24 25 26 27 28 29 30 31 32 33 34 35 36 37 38 39 40 41 42 43 44 45 46 47 48 49 50
000
ASHW40 PHFO 230843
RWRHI

WEATHER ROUNDUP FOR HAWAII
NATIONAL WEATHER SERVICE HONOLULU HI
1000 PM HST THU FEB 22 2018

THIS IS AN AUTOMATED REPORT THAT HAS NOT BEEN QUALITY CONTROLLED.

NOTE..."FAIR" INDICATES FEW OR NO CLOUDS BELOW 12,000 FEET WITH NO
SIGNIFICANT WEATHER AND/OR OBSTRUCTIONS TO VISIBILITY.

* - THESE SITES REPORT LIMITED FIELDS
# - BUOY DATA PROVIDED BY PACIFIC ISLANDS OCEAN OBSERVING SYSTEM.

HIZ001>004-230900-
KAUAI-NIIHAU-

CITY           SKY/WX    TMP DP  RH WIND       PRES   REMARKS
LIHUE APT      CLOUDY    71  71 100 CALM      30.04S
PORT ALLEN*      N/A     72 N/A N/A NE7         N/A
POIPU*           N/A     72 N/A N/A N2          N/A
PRINCEVILLE*     N/A     70 N/A N/A S2          N/A
KOKOLE POINT*  NOT AVBL
MOLOAA DAIRY*    N/A     72  70  94 SE3G10      N/A
WAIMEA HTS*      N/A     70  66  88 NE5G10      N/A
PUU OPAE*        N/A     64  59  82 E7G13       N/A
PUU LUA*       NOT AVBL
MAKAHA RIDGE*    N/A     66  61  82 CALM        N/A
$$

HIZ005>011-230900-
OAHU-

CITY           SKY/WX    TMP DP  RH WIND       PRES   REMARKS
HONOLULU       MOCLDY    73  66  78 NW8       30.04S
KALAELOA       MOCLDY    72  70  94 N3        30.06R
KANEOHE MCB    CLOUDY    72  69  90 W3        30.01S
WHEELER FIELD  FAIR      67  67  99 NW5       30.07F
BELLOWS*         N/A    N/A N/A N/A W1          N/A
KAHUKU*          N/A    N/A N/A N/A NE1         N/A
WHEELER*         N/A    N/A N/A N/A W5          N/A
WAIANAE HARBOR   N/A    N/A N/A N/A CALM        N/A
DILLINGHAM*    NOT AVBL
KAHUKU TRN*      N/A     72  70  94 CALM        N/A
KAWAILOA*        N/A     68  63  83 NE3         N/A
KII*             N/A     72  68  88 E3G16       N/A
MAKUA RANGE*   NOT AVBL
OAHU FOREST NW   N/A     66 N/A N/A SE3         N/A
SCHOFIELD BRK*   N/A     72  70  94 MISG        N/A
SCHOFIELD S*   NOT AVBL
WAIANAE VLY*   NOT AVBL
KUAOKALA*        N/A     70  68  94 N1G10       N/A
HONOULIUULI*   NOT AVBL
MOKUOLOE IS*   NOT AVBL
PALEHUA*         N/A     64  63  94 E8G16       N/A
WAIAWA PHB*    NOT AVBL
$$

HIZ012>013-230900-
MOLOKAI-

CITY           SKY/WX    TMP DP  RH WIND       PRES   REMARKS
MOLOKAI AIRPT  LGT RAIN  69  67  93 E5        30.05F
KALAUPAPA      NOT AVBL
MAKAPULAPAI*     N/A     75  64  69 E12G20      N/A
MOLOKAI 1*     NOT AVBL
PUU ALII*        N/A     72  70  94 SE2G10      N/A
$$

HIZ016-230900-
KAHOOLAWE-

CITY           SKY/WX    TMP DP  RH WIND       PRES   REMARKS
KAHOOLAWE*     NOT AVBL
HAKIOAWA*        N/A     70  67  91 MISG      30.48F
HONOKANAIA*    NOT AVBL
KANELOA*         N/A     72  68  88 E14G22    30.14S
KEALIALALO*    NOT AVBL
LUA MAKIKA*    NOT AVBL
$$

HIZ014>015-230900-
LANAI-

CITY           SKY/WX    TMP DP  RH WIND       PRES   REMARKS
LANAI CITY     FAIR      67  64  90 E25G31    30.09S
LANAI 1*       NOT AVBL
$$

HIZ017>028-230900-
MAUI-

CITY           SKY/WX    TMP DP  RH WIND       PRES   REMARKS
KAHULUI        CLOUDY    72  70  93 N6        30.07F
KAPALUA-W MAUI NOT AVBL
HANA AIRPORT   LGT RAIN  70  32  24 SE8       30.12S
HANA*            N/A     72 N/A N/A SE6         N/A
HALEAKALA SUMM   N/A     39  39 100 SE26        N/A  WCI  28
MAALAEA BAY*     N/A     70 N/A N/A NE5         N/A
HALEAKALA*     NOT AVBL
KAUPO GAP*     NOT AVBL
KULA 1*          N/A     51  48  88 N6G17       N/A
$$

HIZ023>026-230900-
BIG ISLAND OF HAWAII COAST AND LOWER SLOPES-

CITY           SKY/WX    TMP DP  RH WIND       PRES   REMARKS
KAILUA KONA    LGT RAIN  72  68  87 SE6       30.07R
HILO           LGT RAIN  70  66  87 SW7       30.13R
HONOKAA*         N/A     66 N/A N/A VRB1        N/A
KAWAIHAE MWT*    N/A     73 N/A N/A S3          N/A
KAWAIHAE*        N/A     73 N/A N/A N1        30.07S
SOUTH POINT*     N/A     66 N/A N/A N18G28      N/A
UPOLU AIRPORT* NOT AVBL
KAMUELA*       CLOUDY    63  63 100 CALM      30.18S
HAKALAU*         N/A     50  50 100 S3G9        N/A
KALOKO-HONOKO*   N/A     72  70  94 VRB2      30.05F
PALI 2*          N/A     61  59  94 S8G16       N/A
KEALAKOMO*       N/A     73  70  88 NE12G17     N/A
KAUPULEHU*       N/A     68  66  94 E7          N/A
KAPAPALA*        N/A     63  61  92 VRB7        N/A
LOWER KAHUKU*    N/A     59  57  94 N3G16       N/A
PUHE CS*         N/A     72  70  94 SE2         N/A
PUHO CS*         N/A     70  69  96 NE1         N/A
PTA KEAMUKU*     N/A     61  59  94 E3          N/A
WAIKOLOA*        N/A     70  68  94 CALM        N/A
$$

HIZ027>028-230900-
BIG ISLAND OF HAWAII INTERIOR AND SUMMMITS-

CITY           SKY/WX    TMP DP  RH WIND       PRES   REMARKS
BRADSHAW FIELD CLOUDY    54  48  82 SE6       30.37S
MK VISITOR CEN   N/A     43  39  87 E9          N/A
MAUNA KEA*       N/A     28  28 100 E12         N/A  WCI  18
MAUNA LOA*       N/A    N/A N/A N/A MISG        N/A
MAUNA LOA 1*   NOT AVBL
PTA KIPUKA*      N/A     54  52  94 W2          N/A
PTA RANGE 17*    N/A     59  55  88 NW13G24     N/A
PTA WEST*        N/A     66  61  82 E10G26      N/A
NENE CABIN*      N/A     48  48 100 NE9G18      N/A
AHUMOA*          N/A     50  48  92 N3          N/A
PTA PORTABLE*  NOT AVBL
PUU MALI*        N/A     54 N/A N/A SE7G18      N/A
$$

HIC003-230900-
NORTHWEST ISLANDS-

CITY           SKY/WX    TMP DP  RH WIND       PRES   REMARKS
MIDWAY ISLAND  MOCLDY    64  59  82 NE13      30.25S
MIDWAY NOS*      N/A     66 N/A N/A MISG      30.23S
FRENCH FRIGATE NOT AVBL
$$

PHZ110>124-180-230900-
BUOY REPORTS

STATION/POSITION TIME  TEMP    WIND        PRES    WAVE   SWELL
                       AIR SEA DIR/SP/G            HT/PER HT/DIR
                 (UTC) (F)     (DEG/KT/KT) (MB)    (FT/S) (FT/D)
BUOY 51001       0830   77 78   20/ 14/ 17 1014.1R
BUOY 51101       0750   74 74   80/ 17/ 25 1018.1R   8/12   7/340
BUOY 51100       NOT AVBL
BUOY 51002       0830   72 78   40/ 25/ 31 1016.1S
BUOY 51003       0750   74 77  120/ 16/ 19 1016.1F   8/15   7/320
BUOY 51004       0830   77 77  100/ 19/ 25 1017.9R
WAIMEA BAY#      NOT AVBL
MOKAPU POINT#    0804      74                N/A     7/11   3/ 50
LANAI#           NOT AVBL
BARBERS PT 2#    NOT AVBL
PAUWELA#         0830      75                N/A     8/13   5
HILO#            0827      75                N/A     8/10   5/ 60
KANEOHE BAY#     NOT AVBL
KANEOHE BAY 2#   NOT AVBL
HANALEI#         0822      75                N/A     8/14   7/300
KAHULUI HARBOR   0806   74 77  350/ 11/ 12 1017.9
HONOLULU HARBOR  0806   74 75   30/  1/  3 1016.6
PEARL HARBOR#    0800      76                N/A     3/ 5
KILO NALU        NOT AVBL
HILO HARBOR      0806   69 75  210/  5/  7 1019.8
MOKUOLOE         0736   72 76  170/  2/  2 1017.4R
NAWILIWILI       0806   72 79  260/  3/  4 1017.1
WHOTS BUOY       NOT AVBL
BUOY 51028       NOT AVBL
$$

......................KEY........................................
  SKY/WX - SKY CONDITIONS/PRESENT WEATHER
  TMP    - TEMPERATURE IN FAHRENHEIT
  DWPT   - DEWPOINT IN FAHRENHEIT
  RH     - RELATIVE HUMIDITY IN PERCENT
  WIND   - DIRECTION AND SPEED /MPH FOR ISLANDS...KTS FOR BUOYS/
  PRES   - MEAN SEA LEVEL PRESSURE IN INCHES OF HG
  VSB    - VISIBILITY IN MILES
  HX     - HEAT INDEX
  WCI    - WIND CHILL INDEX
  VRB    - VARIABLE WIND DIRECTION
  N/A    - NOT AVAILABLE




USA.gov is the U.S. government's official web portal to all federal, state and local government web resources and services.